FW8254 Weather Reports


time (UTC)temp
C
wind
direction
speed
KPH
gust
KPH
rain 1hr
cm
rain 24hr
cm
rain mn
cm
humidity
%
barometer
mb
20260902092700 24 336 0.0 0.0 0.00 0.00 0.00 88 1012.1
20260902092155 24 336 0.0 0.0 0.00 0.00 0.00 88 1012.4
20260902091654 24 336 0.0 0.0 0.00 0.00 0.00 87 1012.2
20260902091152 24 338 0.0 0.0 0.00 0.00 0.00 87 1012.2
20260902090647 24 336 0.0 0.0 0.00 0.00 0.00 87 1012.1
20260902090146 24 336 0.0 0.0 0.00 0.00 0.00 87 1012.1
20260902085641 24 336 0.0 0.0 0.00 0.00 0.00 87 1012.2
20260902085136 24 336 0.0 0.0 0.00 0.00 0.00 87 1012.1
20260902084632 24 336 0.0 0.0 0.00 0.00 0.00 86 1012.0
20260902084127 24 336 0.0 0.0 0.00 0.00 0.00 86 1011.9
20260902083623 25 336 0.0 0.0 0.00 0.00 0.00 86 1012.0
20260902083122 25 336 0.0 0.0 0.00 0.00 0.00 86 1011.9
20260902082618 25 336 0.0 0.0 0.00 0.00 0.00 86 1011.9
20260902082114 25 336 0.0 0.0 0.00 0.00 0.00 86 1011.8
20260902081611 25 336 0.0 0.0 0.00 0.00 0.00 86 1011.8
20260902081105 25 336 0.0 0.0 0.00 0.00 0.00 85 1011.9
20260902080600 25 335 0.0 0.0 0.00 0.00 0.00 85 1011.8
20260902080057 25 336 0.0 0.0 0.00 0.00 0.00 85 1011.6
20260902075556 25 335 0.0 0.0 0.00 0.00 0.00 85 1011.6
20260902075052 25 336 0.0 0.0 0.00 0.00 0.00 85 1011.8
20260902074547 25 335 0.0 0.0 0.00 0.00 0.00 85 1011.4
20260902074043 25 339 0.0 0.0 0.00 0.00 0.00 85 1011.7
20260902073538 25 336 0.0 0.0 0.00 0.00 0.00 85 1011.5
20260902073034 25 336 0.0 0.0 0.00 0.00 0.00 84 1011.5
20260902072530 25 337 0.0 0.0 0.00 0.00 0.00 84 1011.7
20260902072027 25 338 0.0 0.0 0.00 0.00 0.00 84 1011.9
20260902071525 25 337 0.0 0.0 0.00 0.00 0.00 85 1011.9
20260902071022 25 337 0.0 0.0 0.00 0.00 0.00 85 1011.7
20260902070518 25 336 0.0 0.0 0.00 0.00 0.00 85 1011.9
20260902070017 25 336 0.0 0.0 0.00 0.00 0.00 85 1011.9
20260902065511 25 336 0.0 0.0 0.00 0.00 0.00 86 1012.0
20260902065006 25 336 0.0 0.0 0.00 0.00 0.00 86 1011.7
20260902064502 25 337 0.0 0.0 0.00 0.00 0.00 86 1011.9
20260902063958 25 337 0.0 0.0 0.00 0.00 0.00 86 1011.8
20260902063457 25 337 0.0 0.0 0.00 0.00 0.00 87 1011.8
20260902062953 25 337 0.0 0.0 0.00 0.00 0.00 88 1011.9
20260902062445 25 337 0.0 0.0 0.00 0.00 0.00 88 1011.9
20260902061941 25 337 0.0 0.0 0.00 0.00 0.00 89 1012.0
20260902061436 25 336 0.0 0.0 0.00 0.00 0.00 90 1012.1
20260902060932 25 337 0.0 0.0 0.00 0.00 0.00 90 1012.2
20260902060428 25 337 0.0 0.0 0.00 0.00 0.00 90 1012.0
20260902055923 25 337 0.0 0.0 0.00 0.00 0.00 90 1012.0
20260902055420 25 337 0.0 0.0 0.00 0.00 0.00 90 1012.0
20260902054915 25 337 0.0 0.0 0.00 0.00 0.00 90 1011.9
20260902054410 25 337 0.0 0.0 0.00 0.00 0.00 90 1011.7
20260902053905 25 337 0.0 0.0 0.00 0.00 0.00 90 1012.0
20260902053400 25 337 0.0 0.0 0.00 0.00 0.00 90 1011.9
20260902052859 25 337 0.0 0.0 0.00 0.00 0.00 90 1011.7
20260902052354 25 338 0.0 0.0 0.00 0.00 0.00 90 1012.0
20260902051850 26 337 0.0 0.0 0.00 0.00 0.00 90 1012.0
20260902051349 25 337 0.0 0.0 0.00 0.00 0.00 90 1011.9
20260902050844 26 337 0.0 0.0 0.00 0.00 0.00 90 1012.1
20260902050343 26 337 0.0 0.0 0.00 0.00 0.00 90 1011.7
20260902045838 26 338 0.0 1.6 0.00 0.00 0.00 90 1011.7
20260902045334 26 338 0.0 0.0 0.00 0.00 0.00 90 1012.0
20260902044830 26 338 0.0 0.0 0.00 0.00 0.00 90 1011.7
20260902044326 26 338 0.0 0.0 0.00 0.00 0.00 90 1011.6
20260902043827 26 338 0.0 0.0 0.00 0.00 0.00 90 1011.7
20260902043321 26 339 0.0 1.6 0.00 0.00 0.00 90 1011.7
20260902042820 26 343 0.0 1.6 0.00 0.00 0.00 90 1011.7
20260902042315 26 341 0.0 0.0 0.00 0.00 0.00 90 1011.4
20260902041811 26 336 0.0 0.0 0.00 0.00 0.00 90 1011.7
20260902041310 26 336 0.0 0.0 0.00 0.00 0.00 90 1011.7
20260902040809 26 333 0.0 0.0 0.00 0.00 0.00 89 1011.6
20260902040305 26 332 0.0 0.0 0.00 0.00 0.00 89 1011.8
20260902035803 26 328 0.0 1.6 0.00 0.00 0.00 89 1011.7
20260902035259 26 335 0.0 0.0 0.00 0.00 0.00 89 1011.6
20260902034758 26 337 0.0 0.0 0.00 0.00 0.00 89 1011.6
20260902034253 26 336 0.0 0.0 0.00 0.00 0.00 89 1011.6
20260902033751 26 329 0.0 1.6 0.00 0.00 0.00 89 1011.6
20260902033247 26 336 0.0 0.0 0.00 0.00 0.00 89 1011.4
20260902032745 26 328 0.0 0.0 0.00 0.00 0.00 88 1011.6
20260902032241 26 328 0.0 0.0 0.00 0.00 0.00 88 1011.5
20260902031740 26 328 0.0 0.0 0.00 0.00 0.00 88 1011.5
20260902031236 27 328 0.0 0.0 0.00 0.00 0.00 88 1011.6
20260902030732 27 327 0.0 0.0 0.00 0.00 0.00 88 1011.6
20260902030231 27 326 0.0 1.6 0.00 0.00 0.00 88 1011.6
20260902025730 27 330 0.0 0.0 0.00 0.00 0.00 88 1011.5
20260902025226 27 328 0.0 1.6 0.00 0.00 0.00 88 1011.3
20260902024721 27 328 0.0 0.0 0.00 0.00 0.00 88 1011.5
20260902024216 27 329 0.0 1.6 0.00 0.00 0.00 88 1011.6
20260902023712 26 334 0.0 0.0 0.00 0.00 0.00 88 1011.6
20260902023207 26 331 0.0 1.6 0.00 0.00 0.00 88 1011.6
20260902022707 27 332 0.0 1.6 0.00 0.00 0.00 87 1011.7
20260902022202 27 336 0.0 0.0 0.00 0.00 0.00 87 1011.7
20260902021658 27 336 0.0 0.0 0.00 0.00 0.00 87 1011.4
20260902021152 27 336 0.0 0.0 0.00 0.00 0.00 87 1011.5
20260902020648 27 336 0.0 0.0 0.00 0.00 0.00 86 1011.5
20260902020144 27 336 0.0 0.0 0.00 0.00 0.00 86 1011.3
20260902015639 27 336 0.0 0.0 0.00 0.00 0.00 86 1011.4
20260902015136 27 336 0.0 0.0 0.00 0.00 0.00 85 1011.4
20260902014631 27 336 0.0 0.0 0.00 0.00 0.00 85 1011.3
20260902014126 27 335 0.0 0.0 0.00 0.00 0.00 85 1011.1
20260902013626 27 334 0.0 0.0 0.00 0.00 0.00 85 1011.0
20260902013121 27 333 0.0 0.0 0.00 0.00 0.00 84 1011.0
20260902012617 27 334 0.0 0.0 0.00 0.00 0.00 84 1011.1
20260902012112 28 333 0.0 0.0 0.00 0.00 0.00 84 1011.1
20260902011608 28 334 0.0 0.0 0.00 0.00 0.00 84 1011.0
20260902011107 28 334 0.0 0.0 0.00 0.00 0.00 84 1010.9
20260902010607 28 334 0.0 0.0 0.00 0.00 0.00 84 1010.9
20260902005600 28 331 0.0 0.0 0.00 0.00 0.00 82 1010.8
20260902005057 28 331 0.0 0.0 0.00 0.00 0.00 82 1010.8
20260902004555 28 332 0.0 0.0 0.00 0.00 0.00 81 1010.7
20260902004051 29 331 0.0 0.0 0.00 0.00 0.00 81 1010.6
20260902003546 29 332 0.0 0.0 0.00 0.00 0.00 80 1010.5
20260902003042 29 332 0.0 0.0 0.00 0.00 0.00 80 1010.8
20260902002538 29 331 0.0 0.0 0.00 0.00 0.00 79 1010.6
20260902002032 30 327 0.0 0.0 0.00 0.00 0.00 79 1010.7
20260902001527 30 327 0.0 0.0 0.00 0.00 0.00 79 1010.6
20260902001022 30 326 0.0 0.0 0.00 0.00 0.00 78 1010.4
20260902000517 30 326 0.0 0.0 0.00 0.00 0.00 78 1010.6
20260902000012 30 329 0.0 0.0 0.00 0.00 0.00 77 1010.5
20260901235507 30 32 0.0 0.0 0.00 0.00 0.00 76 1010.6
20260901235003 30 31 0.0 0.0 0.00 0.00 0.00 74 1010.8
20260901234501 31 31 0.0 0.0 0.00 0.00 0.00 73 1010.7
20260901233956 31 31 0.0 0.0 0.00 0.00 0.00 72 1010.7
20260901233451 31 31 0.0 0.0 0.00 0.00 0.00 71 1010.8
20260901232947 32 31 0.0 0.0 0.00 0.00 0.00 70 1010.7
20260901232442 32 31 0.0 0.0 0.00 0.00 0.00 68 1010.5
20260901231937 32 31 0.0 0.0 0.00 0.00 0.00 66 1010.8
20260901231434 32 31 0.0 0.0 0.00 0.00 0.00 64 1010.7
20260901230930 32 31 0.0 0.0 0.00 0.00 0.00 65 1010.7
20260901230429 32 31 0.0 0.0 0.00 0.00 0.00 61 1010.9
20260901225925 32 31 0.0 0.0 0.00 0.00 0.00 55 1010.6
20260901225424 32 31 0.0 0.0 0.00 0.00 0.00 54 1010.7
20260901224919 33 31 0.0 0.0 0.00 0.00 0.00 55 1010.8
20260901224416 33 31 0.0 0.0 0.00 0.00 0.00 53 1010.8
20260901223912 33 31 0.0 0.0 0.00 0.00 0.00 54 1010.7
20260901223407 33 31 0.0 1.6 0.00 0.00 0.00 54 1010.8
20260901222902 33 31 0.0 1.6 0.00 0.00 0.00 53 1010.9
20260901222359 33 31 0.0 1.6 0.00 0.00 0.00 52 1010.6
20260901221854 33 31 0.0 0.0 0.00 0.00 0.00 53 1010.9
20260901221350 33 31 0.0 0.0 0.00 0.00 0.00 53 1010.7
20260901220850 33 31 0.0 1.6 0.00 0.00 0.00 53 1010.8
20260901220348 33 31 0.0 0.0 0.00 0.00 0.00 53 1010.4
20260901215848 33 31 0.0 0.0 0.00 0.00 0.00 53 1010.5
20260901215347 33 31 0.0 0.0 0.00 0.00 0.00 53 1010.7
20260901214846 34 18 0.0 0.0 0.00 0.00 0.00 52 1010.5
20260901214345 34 17 0.0 0.0 0.00 0.00 0.00 51 1010.6
20260901213845 34 17 0.0 0.0 0.00 0.00 0.00 50 1010.9
20260901213339 34 17 0.0 3.2 0.00 0.00 0.00 49 1010.6
20260901212834 34 354 4.8 4.8 0.00 0.00 0.00 51 1010.6
20260901212330 34 15 1.6 3.2 0.00 0.00 0.00 52 1010.7
20260901211826 34 345 3.2 3.2 0.00 0.00 0.00 50 1010.5
20260901211321 34 8 1.6 4.8 0.00 0.00 0.00 50 1010.6
20260901210816 34 18 3.2 3.2 0.00 0.00 0.00 52 1010.7
20260901210312 34 30 1.6 1.6 0.00 0.00 0.00 49 1010.7
20260901205808 34 29 0.0 1.6 0.00 0.00 0.00 49 1010.7
20260901205308 33 10 1.6 1.6 0.00 0.00 0.00 50 1010.7
20260901204804 33 14 1.6 4.8 0.00 0.00 0.00 50 1010.7
20260901204300 33 342 4.8 4.8 0.00 0.00 0.00 52 1010.8
20260901203759 33 348 3.2 4.8 0.00 0.00 0.00 52 1010.9
20260901203300 33 345 3.2 3.2 0.00 0.00 0.00 50 1010.7
20260901202754 33 357 3.2 3.2 0.00 0.00 0.00 53 1010.8
20260901202250 33 7 3.2 4.8 0.00 0.00 0.00 51 1011.0
20260901201745 33 343 4.8 4.8 0.00 0.00 0.00 52 1011.1
20260901201244 33 342 3.2 4.8 0.00 0.00 0.00 51 1011.1
20260901200738 33 309 4.8 4.8 0.00 0.00 0.00 54 1011.2
20260901200234 34 10 1.6 3.2 0.00 0.00 0.00 52 1011.1
20260901195732 35 5 1.6 3.2 0.00 0.00 0.00 49 1011.2
20260901195226 34 0 1.6 3.2 0.00 0.00 0.00 50 1011.4
20260901194722 34 334 3.2 3.2 0.00 0.00 0.00 50 1011.4
20260901194217 34 25 0.0 3.2 0.00 0.00 0.00 51 1011.6
20260901193713 33 10 3.2 3.2 0.00 0.00 0.00 51 1011.3
20260901193207 34 3 3.2 4.8 0.00 0.00 0.00 50 1011.3
20260901192707 34 353 3.2 3.2 0.00 0.00 0.00 53 1011.5
20260901192202 34 241 3.2 4.8 0.00 0.00 0.00 52 1011.6
20260901191658 35 337 4.8 4.8 0.00 0.00 0.00 52 1011.8
20260901191154 35 18 0.0 1.6 0.00 0.00 0.00 49 1011.5
20260901190650 34 15 0.0 1.6 0.00 0.00 0.00 52 1012.1
20260901190148 34 5 1.6 4.8 0.00 0.00 0.00 51 1012.0
20260901185647 33 2 1.6 3.2 0.00 0.00 0.00 54 1011.8
20260901185145 33 6 4.8 4.8 0.00 0.00 0.00 53 1011.9
20260901184641 33 357 3.2 4.8 0.00 0.00 0.00 54 1011.9
20260901184131 32 1 3.2 8.0 0.00 0.00 0.00 54 1012.0
20260901183626 33 347 3.2 4.8 0.00 0.00 0.00 55 1012.0
20260901183121 32 5 4.8 4.8 0.00 0.00 0.00 57 1012.1
20260901182617 32 346 3.2 4.8 0.00 0.00 0.00 56 1012.1
20260901182117 32 342 4.8 8.0 0.00 0.00 0.00 55 1012.1
20260901181616 32 325 4.8 4.8 0.00 0.00 0.00 56 1012.2
20260901181116 32 357 1.6 4.8 0.00 0.00 0.00 57 1012.3
20260901180610 32 355 3.2 3.2 0.00 0.00 0.00 57 1012.4
20260901180104 32 352 3.2 4.8 0.00 0.00 0.00 57 1012.5
20260901175603 32 355 1.6 4.8 0.00 0.00 0.00 57 1012.4
20260901175058 32 359 0.0 1.6 0.00 0.00 0.00 58 1012.4
20260901174554 32 357 1.6 3.2 0.00 0.00 0.00 58 1012.5
20260901174050 32 356 1.6 3.2 0.00 0.00 0.00 58 1012.6
20260901173549 32 357 1.6 3.2 0.00 0.00 0.00 56 1012.7
20260901173046 32 357 1.6 3.2 0.00 0.00 0.00 57 1012.6
20260901172541 32 358 0.0 3.2 0.00 0.00 0.00 59 1012.5
20260901172038 32 357 3.2 3.2 0.00 0.00 0.00 58 1012.8
20260901171533 31 355 1.6 3.2 0.00 0.00 0.00 58 1012.9
20260901171032 31 355 3.2 4.8 0.00 0.00 0.00 59 1012.9
20260901170531 31 313 4.8 4.8 0.00 0.00 0.00 62 1013.2
20260901170026 31 349 3.2 3.2 0.00 0.00 0.00 61 1013.1
20260901165520 31 356 3.2 3.2 0.00 0.00 0.00 59 1013.1
20260901165016 31 359 1.6 1.6 0.00 0.00 0.00 62 1013.0
20260901164512 31 359 0.0 1.6 0.00 0.00 0.00 61 1013.1
20260901164007 31 353 3.2 3.2 0.00 0.00 0.00 65 1013.3
20260901163502 31 342 3.2 3.2 0.00 0.00 0.00 66 1013.3
20260901163000 31 320 4.8 4.8 0.00 0.00 0.00 66 1013.4
20260901162456 31 355 1.6 3.2 0.00 0.00 0.00 66 1013.2
20260901161955 30 358 1.6 3.2 0.00 0.00 0.00 66 1013.5
20260901161454 30 352 3.2 4.8 0.00 0.00 0.00 66 1013.7
20260901160949 30 358 1.6 3.2 0.00 0.00 0.00 67 1013.8
20260901160445 30 356 1.6 1.6 0.00 0.00 0.00 67 1013.7
20260901155944 30 359 0.0 0.0 0.00 0.00 0.00 68 1013.6
20260901155444 30 359 0.0 1.6 0.00 0.00 0.00 68 1013.6
20260901154941 30 338 4.8 4.8 0.00 0.00 0.00 70 1013.8
20260901154440 30 359 0.0 0.0 0.00 0.00 0.00 72 1013.7
20260901153935 29 358 0.0 1.6 0.00 0.00 0.00 72 1014.0
20260901153430 29 358 1.6 1.6 0.00 0.00 0.00 72 1014.0
20260901152929 29 355 1.6 3.2 0.00 0.00 0.00 73 1014.0
20260901152429 29 359 1.6 1.6 0.00 0.00 0.00 74 1014.0
20260901151929 29 358 1.6 1.6 0.00 0.00 0.00 75 1014.0
20260901151424 28 359 0.0 1.6 0.00 0.00 0.00 75 1014.1
20260901150923 28 358 1.6 1.6 0.00 0.00 0.00 76 1014.0
20260901150421 28 359 0.0 1.6 0.00 0.00 0.00 77 1013.9
20260901145918 28 358 1.6 1.6 0.00 0.00 0.00 77 1014.1
20260901145413 28 359 1.6 1.6 0.00 0.00 0.00 78 1014.0
20260901144908 28 355 1.6 1.6 0.00 0.00 0.00 79 1014.1
20260901144403 28 359 0.0 3.2 0.00 0.00 0.00 79 1014.0
20260901143859 27 356 1.6 3.2 0.00 0.00 0.00 80 1013.8
20260901143355 27 358 1.6 1.6 0.00 0.00 0.00 81 1014.0
20260901142851 27 353 3.2 3.2 0.00 0.00 0.00 81 1014.1
20260901142350 27 326 3.2 4.8 0.00 0.00 0.00 81 1014.1
20260901141845 27 356 1.6 3.2 0.00 0.00 0.00 82 1014.1
20260901141340 27 352 3.2 3.2 0.00 0.00 0.00 82 1014.2
20260901140839 27 352 1.6 3.2 0.00 0.00 0.00 82 1014.0
20260901140338 26 346 3.2 3.2 0.00 0.00 0.00 83 1013.9
20260901135833 26 356 1.6 3.2 0.00 0.00 0.00 84 1014.0
20260901135328 26 355 1.6 4.8 0.00 0.00 0.00 84 1013.9
20260901134824 26 331 3.2 3.2 0.00 0.00 0.00 85 1013.8
20260901134319 26 348 3.2 3.2 0.00 0.00 0.00 85 1014.0
20260901133813 26 352 1.6 3.2 0.00 0.00 0.00 85 1014.1
20260901133312 25 338 3.2 3.2 0.00 0.00 0.00 86 1014.0
20260901132810 25 347 3.2 3.2 0.00 0.00 0.00 86 1014.0
20260901132307 25 359 1.6 1.6 0.00 0.00 0.00 87 1013.9
20260901131800 25 0 1.6 1.6 0.00 0.00 0.00 88 1013.9
20260901131300 25 0 0.0 0.0 0.00 0.00 0.00 89 1013.8
20260901130754 25 0 0.0 0.0 0.00 0.00 0.00 89 1014.0
20260901130249 24 0 0.0 1.6 0.00 0.00 0.00 90 1013.8
20260901125747 24 359 0.0 0.0 0.00 0.00 0.00 91 1013.8
20260901125242 23 358 0.0 1.6 0.00 0.00 0.00 92 1013.9
20260901124742 23 357 0.0 0.0 0.00 0.00 0.00 94 1013.8
20260901124236 23 343 0.0 1.6 0.00 0.00 0.00 94 1014.0
20260901123730 23 328 0.0 1.6 0.00 0.00 0.00 94 1013.8
20260901123225 23 328 0.0 0.0 0.00 0.00 0.00 95 1013.9
20260901122724 23 327 0.0 1.6 0.00 0.00 0.00 95 1013.8
20260901122219 23 320 1.6 3.2 0.00 0.00 0.00 95 1013.9
20260901121713 23 329 0.0 0.0 0.00 0.00 0.00 95 1013.9
20260901121208 23 328 0.0 0.0 0.00 0.00 0.00 95 1013.6
20260901120708 23 324 0.0 1.6 0.00 0.00 0.00 95 1013.7
20260901120203 23 315 0.0 1.6 0.00 0.00 0.00 95 1013.5
20260901115658 23 322 0.0 0.0 0.00 0.00 0.00 95 1013.5
20260901115155 23 330 0.0 0.0 0.00 0.00 0.00 95 1013.6
20260901114651 23 331 0.0 0.0 0.00 0.00 0.00 95 1013.5
20260901114150 23 328 0.0 0.0 0.00 0.00 0.00 95 1013.8
20260901113650 23 328 0.0 0.0 0.00 0.00 0.00 95 1013.3
20260901113145 23 332 0.0 0.0 0.00 0.00 0.00 95 1013.5
20260901112645 23 333 0.0 0.0 0.00 0.00 0.00 95 1013.2
20260901112145 23 333 0.0 0.0 0.00 0.00 0.00 95 1013.3
20260901111644 23 334 0.0 0.0 0.00 0.00 0.00 95 1013.2
20260901111138 23 334 0.0 0.0 0.00 0.00 0.00 94 1013.2
20260901110633 23 336 0.0 0.0 0.00 0.00 0.00 94 1013.2
20260901110128 23 337 0.0 0.0 0.00 0.00 0.00 94 1013.0
20260901105625 23 335 0.0 0.0 0.00 0.00 0.00 94 1013.1
20260901105124 23 335 0.0 0.0 0.00 0.00 0.00 94 1013.0
20260901104620 23 333 0.0 0.0 0.00 0.00 0.00 94 1012.9
20260901104115 23 334 0.0 0.0 0.00 0.00 0.00 94 1012.7
20260901103609 23 333 0.0 0.0 0.00 0.00 0.00 94 1012.8
20260901103105 23 332 0.0 0.0 0.00 0.00 0.00 93 1012.8
20260901102605 23 332 0.0 0.0 0.00 0.00 0.00 93 1013.1
20260901102105 23 332 0.0 0.0 0.00 0.00 0.00 93 1012.7
20260901101601 23 332 0.0 0.0 0.00 0.00 0.00 93 1012.9
20260901101100 23 332 0.0 0.0 0.00 0.00 0.00 93 1012.7
20260901100559 23 332 0.0 0.0 0.00 0.00 0.00 93 1012.6
20260901100054 23 333 0.0 0.0 0.00 0.00 0.00 93 1012.8
20260901095552 23 334 0.0 0.0 0.00 0.00 0.00 93 1012.7
20260901095050 23 333 0.0 0.0 0.00 0.00 0.00 92 1012.7
20260901094546 23 333 0.0 0.0 0.00 0.00 0.00 92 1012.6
20260901094045 23 333 0.0 0.0 0.00 0.00 0.00 92 1012.8
20260901093540 23 335 0.0 0.0 0.00 0.00 0.00 92 1012.7